Regional Weather Roundup
Issued by NWS Green Bay, WI

Home | Current Version | Previous Version | Graphics & Text | Print | Product List | Glossary Off
Versions: 1 2 3 4 5 6 7 8 9 10 11 12 13 14 15 16 17 18 19 20 21 22 23 24 25 26 27 28 29 30 31 32 33 34 35 36 37 38 39 40 41 42 43 44 45 46 47 48 49 50

000
ASUS43 KGRB 191759
RWRGRB

NORTH-CENTRAL AND NORTHEAST WISCONSIN REGIONAL WEATHER ROUNDUP
NATIONAL WEATHER SERVICE GREEN BAY WI
1200 PM CST FRI DEC 19 2014

WIZ005-009-010>012-018-019-191900-
NORTH CENTRAL WISCONSIN

CITY           SKY/WX    TMP DP  RH WIND       PRES   REMARKS
IRONWOOD       CLOUDY    21  19  93 S9        30.20F
MANITOWISH WTR NOT AVBL
ARBOR VITAE    NOT AVBL
EAGLE RIVER    NOT AVBL
LAND O LAKES   NOT AVBL
RHINELANDER    PTSUNNY   19  17  92 CALM      30.22F
PHILLIPS       NOT AVBL
ANTIGO         NOT AVBL
TOMAHAWK       NOT AVBL
MERRILL        NOT AVBL
$$

WIZ013-073-191900-
NORTHEAST WISCONSIN

CITY           SKY/WX    TMP DP  RH WIND       PRES   REMARKS
IRON MOUNTAIN  CLOUDY    24  20  84 N3        30.24F
MARINETTE      PTSUNNY   30  19  64 CALM      30.28S
$$

WIZ017-030-035>037-045-191900-
CENTRAL WISCONSIN

CITY           SKY/WX    TMP DP  RH WIND       PRES   REMARKS
MEDFORD        NOT AVBL
WAUSAU         CLOUDY    25  19  78 S5        30.24S
MOSINEE        CLOUDY    25  19  80 S5        30.26
MARSHFIELD     CLOUDY    24  20  84 CALM      30.24F
WISC RAPIDS    CLOUDY    25  18  74 SE5       30.28F
STEVENS POINT  NOT AVBL
WAUPACA        NOT AVBL
SHAWANO        NOT AVBL
CLINTONVILLE   NOT AVBL
$$

WIZ038-039-048-051-191900-
FOX VALLEY

CITY           SKY/WX    TMP DP  RH WIND       PRES   REMARKS
NWS GREEN BAY  SUNNY     28  23  81 CALM      30.29F
APPLETON       NOT AVBL
OSHKOSH        MOSUNNY   29  20  69 VRB3      30.28F
FOND DU LAC    PTSUNNY   29  20  69 VRB3      30.29S
$$

WIZ022-050-052-191900-
EAST CENTRAL WISCONSIN

CITY           SKY/WX    TMP DP  RH WIND       PRES   REMARKS
STURGEON BAY   MOSUNNY   27  19  74 NW3       30.29F
MANITOWOC      PTSUNNY   30  21  69 CALM      30.29S
SHEBOYGAN      CLOUDY    30  20  66 NW5       30.28S
$$

LMZ563-521-522-541>543-191900-
LAKESHORE

STATION/POSITION TIME  TEMP    WIND        PRES    VSBY  WAVE
                       AIR SEA DIR/SP/G                  HT/PER
                 (UTC) (F)     (DEG/KT/KT) (MB)    (MI)  (FT/S)
SHEBOYGAN LKSHOR 1700   29 34  320/  9/ 10 1026.7F
KEWAUNEE LKSHORE 1700   30      30/  1/  5 1024.6F
ALGOMA MARINA    1700          350/  5/  8   N/A
NORTHPORT PIER   1700   28     320/  4/  6 1025.4F
CHAMBERS ISLAND  1700   28      10/  4/  5 1026.1F
MENOMINEE LKSHOR 1700   27      10/  3/  5 1026.1F
$$


USA.gov is the U.S. government's official web portal to all federal, state and local government web resources and services.